Wind_Speed
28 28 27 27 27 27 26 26 26 26 25 26 26 26 25 25 26 26 25 25 25 25 25 25 25 24 24 24 24 24 23 24 24 24 24 23 23 23 23 23 24 24 24
30 29 29 29 29 29 28 28 28 27 27 27 27 27 27 27 27 28 27 27 26 26 26 26 27 26 26 26 25 25 25 25 26 26 26 25 25 25 25 25 25 25 25
32 31 30 30 30 30 30 30 30 29 28 28 28 28 28 28 28 28 28 28 28 28 28 28 29 29 29 28 28 27 27 27 28 28 28 27 27 27 27 27 27 27 27
33 33 32 32 31 31 31 31 31 30 30 29 29 30 30 29 29 29 29 30 30 30 30 30 30 30 31 31 30 30 29 29 29 30 29 29 29 29 30 30 30 30 30
34 34 33 33 32 32 32 32 32 32 32 31 30 30 30 30 31 30 30 31 31 31 32 32 32 32 33 33 33 32 31 31 31 31 31 31 31 31 32 32 32 32 32
36 35 34 33 33 33 32 32 33 33 33 32 31 31 31 31 31 31 31 31 31 32 32 32 33 34 34 34 34 33 33 33 33 33 33 33 33 34 34 34 34 35 34
36 36 35 35 34 34 34 33 33 33 33 33 32 32 32 32 31 32 32 32 33 33 33 33 33 34 34 34 34 34 35 35 34 34 35 35 35 35 35 36 36 36 36
37 37 37 36 35 35 35 34 34 34 34 35 34 34 34 34 33 33 34 34 35 35 35 35 35 34 34 34 35 35 35 35 36 36 36 36 37 37 37 38 38 37 37
39 38 38 37 37 36 36 36 36 35 35 36 36 36 35 35 35 35 35 35 35 36 36 36 36 36 36 35 35 35 36 37 37 37 37 37 37 38 39 38 38 38 38
41 40 39 39 38 38 38 38 37 37 37 37 37 37 36 36 36 36 36 36 36 36 37 37 37 37 37 37 37 38 38 38 39 38 38 38 39 39 39 39 39 39 39
42 42 42 41 41 40 39 39 39 39 39 39 38 38 37 36 37 37 37 36 36 36 36 37 37 37 38 38 39 39 39 40 39 39 39 39 39 40 40 41 40 40 40
44 43 42 43 43 42 41 41 41 41 41 41 40 40 39 38 37 37 37 36 36 36 36 36 37 38 39 39 40 40 40 40 41 41 41 41 41 41 41 41 42 42 42
45 44 44 44 45 44 43 42 42 42 42 42 42 41 40 39 39 38 37 37 36 36 36 37 38 38 38 39 40 41 41 40 41 41 41 42 42 42 42 43 43 43 44
46 46 45 45 45 45 45 44 43 43 43 42 42 42 41 41 40 39 39 38 38 38 37 37 37 38 39 39 41 41 41 41 42 42 42 43 43 44 44 44 44 45 46
46 46 46 45 45 45 46 46 44 44 44 43 43 43 43 42 41 41 41 41 40 39 38 38 38 39 39 40 41 41 42 42 43 43 43 43 43 44 45 45 46 47 48
47 46 46 46 46 46 46 46 45 45 45 45 44 44 43 43 43 42 42 42 42 41 40 39 39 40 40 41 41 42 43 43 44 44 44 44 44 45 45 46 47 48 49
47 47 47 47 46 46 46 46 46 45 45 46 45 44 43 43 43 43 43 43 42 42 41 40 40 41 41 42 42 43 43 44 45 44 44 45 46 46 46 47 48 48 49
49 48 47 47 46 46 46 46 45 45 45 45 45 45 44 43 43 43 43 43 42 42 42 41 41 42 42 43 43 44 44 45 45 45 45 46 46 47 47 48 48 49 49
50 50 48 47 46 46 45 45 45 45 45 45 45 44 44 43 43 43 42 43 43 43 43 43 42 43 43 44 45 45 45 45 46 46 46 46 46 47 48 48 48 48 48
50 50 49 48 47 46 45 46 45 45 44 44 43 43 43 43 43 43 43 43 43 44 44 44 44 44 45 45 45 46 46 46 46 46 46 46 47 47 48 48 48 48 47
50 50 49 49 48 47 46 46 45 45 45 44 44 44 44 43 44 44 44 44 44 45 45 46 46 46 46 46 46 47 47 47 47 47 47 47 48 48 48 48 47 47 47
50 50 50 49 49 48 48 48 47 46 45 45 45 45 44 44 43 43 43 44 44 45 45 46 46 46 47 47 48 47 47 48 48 48 48 48 48 48 48 47 47 46 46
50 50 49 49 49 48 48 47 48 47 46 45 45 45 44 43 44 44 44 44 44 45 45 45 46 46 47 47 48 48 48 48 48 48 48 47 48 48 47 46 46 46 46
49 49 49 49 49 48 47 47 48 47 46 45 45 45 44 44 44 45 44 44 44 44 44 45 46 46 47 47 47 47 48 48 48 48 48 47 47 47 46 45 45 46 46
46 47 47 47 47 47 47 47 48 47 46 45 45 45 44 44 44 45 45 45 44 44 44 44 45 46 46 47 47 47 48 48 47 47 47 47 46 46 46 45 44 45 45
45 45 46 46 46 45 46 46 47 46 45 44 45 45 45 45 45 45 45 45 44 44 44 45 45 46 46 46 46 47 47 47 47 46 46 46 45 45 44 43 43 43 42
Wind_Direction
249 251 252 253 254 255 256 258 260 260 260 260 260 261 262 264 265 265 266 267 267 267 268 270 271 272 273 274 274 276 277 278 281 282 283 285 287 288 290 291 293 293 294
250 251 252 253 254 255 256 257 259 261 261 260 260 261 262 263 265 265 264 265 266 267 269 270 271 272 272 273 274 275 276 277 280 281 282 282 284 286 288 289 291 292 292
250 252 252 253 254 254 256 257 258 260 261 260 261 261 263 264 265 265 264 264 266 267 269 270 271 271 272 272 273 274 276 277 279 280 281 281 283 284 286 288 289 291 291
250 251 252 253 253 255 256 257 258 259 261 261 261 262 263 264 265 265 265 265 265 267 269 270 270 271 272 272 272 274 275 277 278 279 280 281 282 284 285 287 288 289 289
250 251 252 253 253 255 256 257 258 259 260 261 262 263 264 264 265 266 266 266 266 268 269 270 270 271 272 271 272 274 275 276 278 278 279 281 282 283 284 286 287 288 288
250 251 251 252 254 255 257 258 258 259 260 260 261 263 263 264 265 266 266 266 266 268 269 270 270 271 272 272 272 273 274 276 278 278 279 281 282 283 284 285 286 287 287
251 250 251 252 254 255 257 258 258 259 259 260 262 263 263 264 265 265 266 266 267 269 270 271 271 271 272 272 272 273 274 276 278 279 279 280 282 282 284 285 285 286 286
250 249 250 251 253 254 255 256 257 258 259 260 262 263 263 264 265 266 267 267 268 270 270 271 271 272 272 272 272 273 273 275 278 280 281 281 282 283 283 284 284 285 285
249 249 249 250 252 254 255 256 257 258 259 261 262 263 264 265 266 266 268 268 269 270 270 270 270 271 272 273 273 273 275 276 277 278 279 281 281 282 283 283 283 284 284
249 250 251 250 251 253 255 256 257 258 260 262 263 263 264 265 266 266 267 268 269 270 271 270 270 271 272 273 273 274 276 277 277 278 280 281 281 281 282 282 283 284 284
248 250 250 251 252 253 254 255 257 258 260 261 263 264 265 266 266 266 267 268 269 269 270 270 271 271 272 272 273 275 277 278 278 279 280 281 281 281 282 283 283 283 284
248 250 251 251 252 253 254 255 257 258 260 261 262 264 265 266 265 266 267 268 268 269 270 270 270 272 272 273 273 274 276 277 278 279 281 281 282 282 283 283 284 283 284
248 249 250 251 252 253 254 255 257 258 259 260 260 262 264 265 266 265 266 267 268 269 269 270 271 272 273 274 275 275 276 277 278 280 281 281 282 283 283 283 284 284 284
249 250 251 252 253 254 255 256 257 258 259 260 260 261 263 264 265 265 265 266 267 268 269 270 271 273 274 275 276 276 276 277 279 280 281 281 281 282 283 283 283 284 285
249 250 252 253 253 254 255 256 256 257 258 259 261 262 262 263 264 264 265 266 267 268 268 270 272 273 274 275 276 277 278 278 279 279 280 280 281 282 283 283 284 284 285
249 250 251 253 254 253 254 255 256 256 257 259 261 261 262 262 262 263 265 265 266 267 268 270 271 273 275 276 276 277 278 279 279 280 280 281 282 282 283 284 284 285 286
249 250 251 252 254 254 254 255 257 256 257 258 259 260 261 262 262 262 263 265 266 267 268 270 272 273 275 277 277 278 279 279 279 279 280 281 282 283 284 285 285 286 287
249 251 251 253 254 255 254 255 256 257 258 258 258 259 260 261 262 263 264 265 266 267 268 269 271 274 276 277 278 278 280 280 280 280 281 282 283 284 285 286 286 286 287
249 250 251 252 253 253 253 254 256 257 259 259 259 259 260 261 262 263 264 265 266 267 267 268 271 273 276 278 278 279 280 280 280 281 282 283 283 285 286 287 287 286 286
249 250 250 251 252 253 254 254 255 257 258 259 259 259 259 261 262 263 264 265 267 268 268 270 271 273 276 278 279 280 280 281 281 281 282 282 283 284 285 286 286 286 286
249 250 250 251 252 252 253 254 255 256 258 259 259 259 259 260 261 263 264 265 267 268 269 271 272 274 276 277 279 280 281 281 281 281 281 282 283 284 285 286 286 286 286
250 250 250 250 251 252 254 254 255 256 257 258 258 258 258 259 260 261 263 265 267 268 270 271 273 275 277 278 280 281 282 282 282 282 281 282 283 284 285 285 285 285 286
251 250 249 250 251 252 254 254 254 255 257 257 257 257 258 258 259 260 263 265 267 269 271 272 274 276 277 279 280 281 282 282 282 282 282 282 283 284 285 285 285 286 287
250 249 249 249 250 251 253 254 254 254 255 255 256 256 257 259 260 261 263 265 268 270 272 274 275 277 278 279 281 282 282 282 282 282 282 283 284 285 284 283 284 286 288
250 249 248 249 249 250 252 253 253 253 254 255 255 257 258 259 261 263 264 266 267 269 272 274 276 278 278 280 281 283 283 283 283 282 282 283 283 283 283 283 284 285 287
249 249 249 249 249 251 252 253 254 253 254 254 254 256 258 260 261 263 264 266 267 269 272 274 276 278 279 280 282 283 283 283 283 282 282 283 283 283 283 283 284 285 286
Height
5813 5815 5817 5818 5820 5822 5823 5825 5826 5827 5828 5829 5830 5832 5832 5833 5834 5835 5836 5836 5837 5837 5837 5837 5837 5838 5838 5838 5838 5838 5838 5838 5838 5838 5837 5837 5837 5836 5836 5835 5834 5833 5832
5807 5809 5810 5812 5814 5816 5817 5819 5820 5821 5822 5824 5825 5826 5826 5827 5828 5829 5830 5830 5831 5831 5832 5832 5832 5832 5832 5832 5832 5832 5832 5832 5832 5832 5832 5832 5831 5831 5830 5829 5829 5828 5827
5800 5802 5804 5806 5808 5809 5811 5812 5814 5815 5816 5817 5818 5819 5820 5821 5822 5823 5823 5824 5825 5825 5826 5826 5825 5826 5826 5826 5826 5826 5826 5826 5826 5826 5826 5826 5825 5825 5824 5824 5823 5822 5821
5793 5795 5797 5799 5801 5802 5804 5806 5807 5809 5810 5811 5812 5813 5814 5815 5815 5816 5817 5818 5818 5819 5819 5819 5819 5819 5819 5819 5819 5819 5820 5820 5820 5820 5819 5819 5819 5818 5818 5817 5816 5815 5814
5785 5788 5790 5792 5794 5796 5797 5799 5800 5802 5803 5804 5805 5806 5807 5808 5808 5809 5810 5810 5811 5812 5812 5812 5812 5812 5812 5812 5812 5812 5813 5813 5813 5813 5812 5812 5812 5811 5811 5810 5809 5808 5807
5777 5780 5782 5784 5786 5788 5790 5791 5793 5794 5795 5797 5798 5799 5800 5800 5801 5802 5802 5803 5804 5804 5804 5804 5804 5804 5804 5804 5805 5805 5805 5805 5805 5805 5805 5805 5804 5804 5803 5802 5801 5800 5799
5769 5772 5774 5776 5778 5780 5782 5784 5785 5787 5788 5789 5790 5791 5792 5793 5794 5794 5795 5795 5796 5796 5796 5797 5797 5796 5796 5796 5797 5797 5797 5798 5797 5797 5797 5796 5796 5796 5795 5794 5793 5792 5791
5761 5763 5766 5768 5770 5772 5774 5776 5777 5779 5780 5781 5782 5783 5784 5786 5786 5787 5787 5787 5788 5788 5788 5788 5788 5788 5788 5788 5789 5789 5789 5789 5789 5788 5788 5788 5787 5787 5786 5785 5784 5783 5782
5752 5755 5757 5759 5761 5764 5765 5767 5769 5770 5772 5773 5774 5775 5776 5777 5778 5779 5779 5779 5779 5779 5779 5779 5779 5779 5780 5780 5780 5780 5780 5780 5780 5780 5779 5779 5778 5777 5777 5776 5775 5774 5773
5743 5745 5748 5750 5752 5754 5756 5758 5760 5762 5763 5764 5765 5766 5767 5768 5769 5769 5770 5770 5770 5770 5770 5770 5770 5771 5771 5771 5771 5772 5772 5771 5771 5771 5770 5770 5769 5768 5767 5767 5765 5764 5763
5733 5735 5738 5740 5743 5745 5747 5749 5751 5752 5754 5755 5756 5757 5758 5759 5759 5760 5760 5761 5761 5761 5761 5761 5761 5761 5762 5762 5762 5762 5762 5762 5762 5761 5761 5760 5759 5759 5758 5756 5755 5754 5753
5723 5725 5728 5730 5733 5735 5737 5739 5741 5742 5744 5745 5746 5747 5749 5750 5750 5750 5751 5751 5752 5752 5752 5752 5752 5752 5752 5752 5752 5752 5752 5752 5752 5751 5751 5750 5749 5748 5747 5746 5745 5744 5742
5712 5715 5717 5720 5722 5725 5727 5728 5730 5732 5733 5735 5736 5738 5739 5740 5741 5741 5741 5742 5742 5743 5743 5743 5743 5742 5742 5742 5742 5742 5742 5741 5741 5741 5740 5740 5739 5738 5737 5736 5734 5733 5731
5701 5704 5706 5709 5711 5714 5716 5717 5719 5721 5723 5724 5726 5727 5729 5730 5731 5732 5732 5733 5733 5734 5734 5734 5734 5733 5733 5732 5732 5731 5731 5731 5730 5730 5729 5729 5728 5727 5726 5725 5723 5722 5720
5690 5693 5695 5698 5700 5702 5704 5706 5708 5710 5712 5714 5715 5717 5718 5719 5721 5722 5722 5723 5724 5724 5725 5725 5725 5724 5723 5723 5722 5721 5721 5720 5720 5719 5718 5718 5717 5716 5715 5714 5712 5710 5708
5678 5681 5684 5686 5689 5691 5693 5695 5697 5699 5701 5703 5705 5706 5708 5709 5710 5711 5712 5713 5713 5714 5715 5715 5715 5714 5714 5713 5712 5711 5711 5710 5709 5708 5707 5707 5706 5705 5703 5702 5700 5698 5696
5666 5669 5672 5675 5677 5679 5682 5684 5686 5688 5690 5692 5694 5695 5697 5698 5699 5701 5701 5702 5703 5703 5704 5705 5705 5704 5703 5703 5702 5701 5700 5699 5698 5697 5696 5695 5694 5693 5691 5690 5688 5685 5683
5654 5657 5660 5663 5666 5668 5670 5672 5675 5676 5678 5681 5683 5684 5686 5687 5689 5690 5691 5691 5692 5693 5694 5694 5694 5694 5693 5692 5691 5690 5689 5688 5687 5686 5684 5683 5681 5680 5678 5677 5675 5672 5669
5642 5645 5648 5651 5653 5656 5658 5661 5663 5665 5667 5669 5671 5673 5675 5676 5678 5679 5680 5681 5681 5682 5683 5683 5684 5683 5682 5681 5680 5679 5678 5677 5675 5674 5672 5671 5669 5667 5665 5663 5661 5659 5656
5629 5632 5636 5639 5641 5644 5646 5649 5651 5654 5656 5657 5659 5661 5663 5665 5667 5668 5669 5670 5670 5671 5672 5672 5672 5672 5671 5670 5669 5668 5666 5665 5663 5662 5660 5658 5657 5654 5652 5650 5648 5646 5643
5616 5620 5623 5626 5629 5632 5634 5637 5639 5642 5644 5646 5648 5650 5652 5653 5655 5656 5658 5659 5659 5660 5660 5660 5661 5660 5660 5659 5657 5656 5654 5653 5651 5649 5648 5646 5644 5642 5640 5637 5635 5632 5630
5603 5606 5610 5613 5616 5620 5622 5625 5627 5630 5632 5634 5636 5638 5640 5642 5643 5645 5646 5647 5648 5648 5649 5649 5649 5649 5648 5647 5645 5643 5642 5641 5640 5638 5636 5634 5631 5629 5627 5624 5622 5619 5617
5590 5593 5597 5600 5604 5607 5610 5612 5615 5617 5620 5622 5624 5626 5629 5630 5632 5633 5634 5635 5636 5637 5637 5637 5637 5636 5636 5634 5633 5631 5629 5627 5626 5624 5622 5621 5619 5617 5614 5611 5609 5607 5605
5576 5580 5584 5588 5591 5595 5597 5600 5602 5605 5607 5610 5613 5615 5617 5619 5621 5622 5623 5624 5625 5625 5626 5625 5625 5624 5623 5621 5620 5618 5616 5615 5613 5611 5609 5609 5607 5604 5601 5599 5597 5595 5592
5563 5567 5571 5575 5579 5582 5585 5587 5590 5592 5595 5598 5601 5603 5605 5607 5609 5610 5611 5613 5613 5614 5613 5613 5612 5611 5610 5609 5607 5605 5604 5602 5601 5599 5597 5595 5594 5592 5590 5588 5585 5583 5581
5552 5555 5559 5563 5567 5570 5572 5575 5577 5580 5583 5586 5589 5591 5593 5595 5597 5598 5599 5600 5601 5602 5601 5601 5600 5599 5597 5596 5594 5592 5591 5589 5588 5587 5585 5583 5582 5579 5579 5577 5574 5571 5569